Wind_Speed
40 39 40 40 39 40 40 40 39 38 37 37 37 35 35 36 36 35 35 35 36 37 37 36 35 34 33 32 31 31 31 31 31 30 29 27 26 25 24 24 23 20 20 20 20 18 18 17 16 16 15 15 15 14 13 13 13 13 13 14 15 15 15 14 11 12 16 18 16 14 12 12 14 14 14 15 16 17 18 19 19 19 18 17 15
40 40 40 40 40 41 40 40 39 38 37 37 37 36 35 36 36 36 36 36 36 38 39 38 37 36 35 35 34 33 33 33 32 31 31 29 28 26 25 25 25 23 22 21 20 18 18 19 19 18 17 16 15 14 14 15 14 15 16 16 17 17 16 17 16 14 15 17 16 14 13 12 13 13 13 14 14 15 17 18 19 20 19 19 18
40 40 40 40 41 40 39 39 39 38 38 38 37 37 36 36 36 37 38 37 36 38 40 40 39 37 37 37 36 35 35 34 33 33 33 32 29 28 27 27 27 26 25 24 22 20 19 19 19 18 17 15 15 15 15 16 15 15 17 17 18 17 17 18 18 17 16 17 15 14 13 13 14 14 13 14 15 15 17 19 20 20 19 20 21
39 40 40 40 39 39 39 39 39 39 39 38 38 38 37 37 37 38 38 38 37 38 39 40 40 39 39 38 37 36 36 35 35 34 33 31 30 29 28 27 28 28 28 27 25 24 23 20 18 17 17 16 16 16 16 17 17 17 17 18 18 17 17 17 18 18 17 16 14 14 15 15 15 15 14 16 17 17 18 18 18 18 19 20 22
38 39 40 39 38 38 39 40 40 40 40 39 38 38 38 38 38 38 38 38 38 38 39 40 41 41 40 40 39 38 37 36 35 33 31 31 30 30 29 29 28 28 29 28 26 25 24 22 20 18 17 17 18 18 18 18 17 17 17 18 18 18 17 18 19 19 18 18 18 17 16 16 16 16 16 16 17 18 18 18 17 17 18 19 21
38 39 39 39 38 39 40 40 41 41 41 40 39 39 39 39 39 39 39 39 39 40 41 42 42 42 42 41 40 39 37 36 34 31 30 31 31 31 31 30 29 28 28 29 27 25 24 23 21 19 19 19 20 20 19 19 18 18 18 19 19 18 18 18 19 19 20 21 21 19 18 17 18 19 18 16 16 18 18 19 19 18 18 20 21
38 39 39 39 39 40 41 42 42 41 41 41 41 41 40 39 39 40 40 39 39 41 42 42 43 42 41 40 40 39 37 35 33 32 31 33 32 32 32 32 31 29 28 29 28 26 25 24 22 20 20 20 20 20 20 20 19 19 19 19 19 18 18 18 18 19 20 20 21 20 20 20 20 20 19 16 14 16 17 18 20 20 20 21 22
39 38 39 40 40 42 43 42 42 41 42 42 41 40 40 40 40 40 40 39 39 41 42 42 42 41 40 39 39 38 37 34 34 35 36 36 35 34 34 33 32 31 30 29 28 26 25 23 21 20 20 20 20 21 21 21 21 21 21 20 19 19 19 20 20 19 19 20 20 20 20 20 20 19 19 17 16 17 19 20 21 22 22 22 22
39 38 39 40 41 43 43 42 41 41 41 41 41 41 41 40 40 40 40 40 39 39 40 41 40 39 38 38 37 37 36 35 36 39 39 38 37 36 36 35 33 32 30 28 27 26 25 23 21 21 20 20 21 22 22 23 23 24 23 22 21 21 21 21 21 20 20 19 19 19 18 18 20 20 20 20 20 20 20 19 20 21 21 21 22
39 38 39 40 41 42 42 41 41 41 41 41 42 42 41 40 39 39 40 40 39 38 38 39 39 38 37 37 37 37 36 35 38 41 40 39 39 37 35 34 33 31 29 27 27 26 25 23 21 20 19 20 21 22 22 23 24 25 25 23 22 22 21 21 21 20 20 19 20 20 18 19 22 22 22 23 23 23 22 21 20 20 18 17 17
39 39 39 40 40 40 41 41 41 41 42 42 42 41 40 39 38 37 39 40 39 37 37 37 38 38 37 37 37 37 35 35 39 42 41 39 39 37 34 33 32 31 29 28 27 27 25 23 21 18 18 19 21 23 23 23 23 23 24 24 23 22 21 21 20 20 20 20 21 21 19 20 23 23 22 23 23 23 22 21 19 17 15 12 12
40 41 40 39 39 40 40 40 40 41 41 41 40 40 38 37 36 36 37 39 38 37 36 37 38 37 36 37 37 36 35 35 38 41 42 40 38 35 33 32 31 30 30 29 28 26 24 22 20 18 17 18 19 19 18 17 17 18 20 22 23 24 24 23 22 21 21 21 20 21 21 21 22 22 20 19 18 18 18 18 18 17 16 14 13
40 41 40 39 41 41 40 40 40 40 40 39 38 37 36 36 36 36 36 37 37 36 36 36 36 36 37 37 36 35 34 34 36 39 40 40 38 34 31 31 31 29 28 28 27 25 23 21 18 17 17 17 15 13 10 9 12 14 16 18 21 23 23 24 24 24 24 24 23 24 25 24 22 21 18 16 16 18 19 18 18 19 19 18 18
39 40 40 40 41 41 39 40 39 38 38 37 35 35 35 35 35 33 33 35 36 36 35 34 35 36 37 36 36 35 33 34 35 36 38 40 38 32 27 27 29 28 27 27 26 25 23 21 18 17 18 17 15 14 13 11 12 14 16 17 20 22 23 24 24 24 25 25 25 26 27 26 24 23 22 22 23 24 23 21 19 20 21 21 22
36 38 39 39 40 40 39 38 37 36 36 35 34 34 34 34 33 31 30 33 35 34 33 33 34 35 35 35 34 33 32 33 33 35 37 36 31 27 26 26 26 27 27 27 26 25 22 20 19 17 15 15 15 14 13 13 13 15 17 21 24 25 25 25 24 23 24 24 24 25 25 24 25 25 24 24 24 23 23 23 20 19 20 21 23
34 36 37 38 38 38 38 36 35 34 34 33 33 32 32 32 31 29 27 28 31 32 32 33 34 33 33 32 31 30 30 31 31 32 34 32 28 27 30 29 27 27 27 26 25 23 21 20 19 16 15 15 13 11 11 12 12 14 18 23 26 26 26 25 23 22 22 21 22 23 23 23 23 23 21 21 21 20 20 21 21 20 19 19 21
32 34 35 36 37 37 37 36 34 33 33 32 31 31 31 31 30 28 26 26 29 31 30 31 32 32 31 30 29 28 28 28 28 30 34 37 35 33 33 31 28 27 26 25 23 20 19 19 18 18 18 17 14 13 14 16 16 16 19 23 24 25 24 23 22 21 20 18 18 19 20 20 19 19 21 22 23 22 19 19 22 23 19 15 14
31 33 34 35 36 36 37 36 35 33 33 32 30 29 29 30 30 29 27 27 29 31 30 29 29 30 30 30 30 30 29 29 30 33 39 43 40 36 34 31 27 24 23 23 23 20 18 17 18 20 19 17 15 16 17 18 18 18 20 22 22 22 22 21 20 19 17 16 16 16 15 15 15 16 17 19 20 21 21 23 24 20 15 12 13
31 33 34 35 36 36 37 36 34 33 32 31 30 29 29 30 30 30 29 28 29 30 30 29 27 27 28 29 30 31 30 30 32 36 42 42 36 32 32 32 28 24 22 21 20 19 20 21 23 24 22 20 20 19 17 17 17 18 20 21 20 20 20 18 16 14 13 13 14 13 13 14 14 14 14 15 16 17 19 22 20 16 14 18 20
30 32 33 34 35 35 35 35 34 33 32 31 31 31 30 29 29 29 27 25 25 27 28 28 26 24 24 26 28 30 31 31 33 37 40 38 32 30 32 32 29 26 22 19 18 19 22 26 27 26 23 23 23 20 18 17 17 18 21 22 20 20 18 16 14 13 12 12 13 13 14 15 15 15 16 15 15 15 15 16 17 15 17 21 22
31 32 33 34 35 35 35 35 35 34 34 33 32 31 30 28 27 27 25 23 23 24 25 24 23 22 23 25 27 29 30 30 32 35 35 31 29 32 33 31 27 24 22 21 23 25 26 27 28 27 24 23 22 21 20 19 19 20 22 21 19 18 16 15 15 15 16 17 16 14 14 14 14 14 14 12 12 12 12 13 15 15 16 17 19
34 34 34 34 35 35 35 35 35 33 33 33 31 29 28 27 26 27 26 24 23 24 24 24 23 23 23 24 26 27 26 26 29 32 31 28 30 34 32 27 25 25 25 26 27 27 26 26 27 27 24 22 21 19 18 18 18 19 20 19 18 17 15 15 15 16 17 17 16 14 13 13 13 13 12 12 12 11 9 9 9 11 12 13 14
35 35 34 34 34 35 34 34 33 32 32 32 31 30 28 26 26 26 26 24 24 25 25 25 25 24 23 23 24 25 25 26 26 28 29 28 31 33 29 25 26 27 27 27 26 25 24 25 26 24 21 20 18 15 14 13 13 15 16 16 15 14 14 14 14 15 15 14 13 13 12 11 12 12 12 12 11 9 7 8 10 13 14 14 15
35 34 34 33 33 33 32 32 31 31 31 31 29 28 27 24 24 26 26 26 25 25 25 25 26 25 23 23 23 24 26 28 27 28 30 31 31 30 28 27 27 28 26 24 24 24 24 24 23 21 18 16 14 12 11 10 10 12 13 13 13 13 13 14 13 12 11 11 11 11 10 10 10 9 9 8 8 8 9 11 14 16 16 16 15
34 33 33 32 32 32 30 29 28 28 29 28 26 26 25 24 24 26 27 26 25 24 24 24 25 25 24 23 24 25 27 28 29 30 32 30 27 27 29 28 27 25 23 22 22 22 22 21 20 17 15 14 12 11 10 10 11 13 13 13 14 13 13 12 12 10 10 10 10 10 10 9 8 8 8 8 8 9 11 14 16 16 16 16 15
32 31 31 31 31 31 29 26 26 25 25 24 23 22 23 22 22 23 24 24 23 24 24 23 23 23 23 23 25 26 27 30 31 32 32 28 25 27 30 28 24 22 22 23 22 21 20 18 16 14 13 11 10 10 10 12 14 14 14 13 12 11 11 11 10 9 9 10 10 10 10 9 8 9 9 8 8 11 13 15 15 15 14 15 17
31 30 30 30 30 30 27 26 25 25 23 22 21 20 21 22 22 21 22 22 22 22 23 22 22 22 22 23 25 27 28 30 32 32 31 28 26 29 30 26 23 23 24 24 23 20 18 16 14 12 11 9 10 12 13 13 13 12 11 9 8 8 8 8 8 9 10 11 11 11 11 10 10 9 8 8 11 13 13 12 12 12 14 16 19
31 29 29 29 28 27 27 27 27 26 24 24 22 20 20 21 21 20 21 21 21 22 21 22 23 23 23 24 24 24 26 28 30 30 29 28 29 31 28 24 23 24 26 26 23 19 17 15 14 13 11 10 12 12 12 10 10 8 7 6 6 6 7 8 9 11 12 12 12 13 13 12 11 9 8 10 12 12 11 11 12 13 15 18 19
30 28 28 28 27 27 28 29 29 29 27 25 22 19 17 18 19 18 18 19 21 22 22 22 23 24 25 25 24 22 23 27 29 29 28 29 30 30 28 25 24 24 25 24 21 18 16 16 15 13 11 12 13 13 11 10 9 8 8 8 8 9 9 10 12 14 14 14 13 13 12 10 8 7 8 10 11 11 11 12 13 15 17 19 20
28 27 26 26 26 28 29 29 29 29 27 25 23 20 17 16 15 15 15 16 18 19 20 20 22 23 24 26 26 24 24 27 29 29 28 28 29 29 25 22 21 21 20 20 18 15 15 15 13 12 12 13 14 15 15 14 14 14 13 11 12 13 12 12 12 13 12 11 8 7 7 6 5 6 8 9 10 11 11 12 13 16 18 20 20
25 23 24 25 26 27 27 27 27 27 26 25 24 22 19 16 14 13 14 14 14 15 16 17 18 20 22 24 26 25 25 26 27 27 27 27 27 25 21 18 18 18 16 15 15 14 13 12 12 11 12 14 17 19 19 19 19 19 16 14 13 14 13 12 11 9 6 4 2 3 4 5 6 7 8 9 10 11 12 13 15 17 19 20 21
24 23 24 27 28 28 27 27 27 26 24 23 23 22 21 19 16 14 13 13 13 14 14 14 16 17 19 22 24 25 25 24 25 27 27 25 23 20 17 16 16 15 14 14 15 12 10 9 9 9 12 15 17 17 18 20 21 19 18 15 14 13 13 12 9 6 2 1 3 4 4 4 6 8 9 10 11 13 14 15 17 17 18 19 19
25 26 27 28 28 27 26 26 25 25 24 23 22 21 21 21 19 17 15 14 15 16 16 16 17 18 19 21 23 24 23 23 22 23 24 23 20 17 16 15 14 12 12 14 13 11 9 8 10 12 15 15 10 7 11 16 16 14 13 11 8 7 6 6 6 4 2 2 2 2 3 4 7 9 9 10 12 13 15 16 16 17 18 18 17
27 28 29 28 26 26 25 24 23 23 23 23 22 21 20 21 21 21 19 17 16 16 17 17 17 18 20 22 21 20 20 20 19 19 19 19 19 17 16 16 14 12 12 12 11 10 9 7 8 9 8 5 5 9 10 9 9 8 7 6 6 5 5 5 4 3 1 0 1 3 5 7 9 9 9 10 12 14 15 15 15 17 16 16 18
27 27 28 27 26 25 24 23 23 23 23 23 22 21 20 21 21 21 19 18 17 16 15 16 16 16 17 18 17 17 17 17 17 16 17 17 18 17 16 15 14 13 12 11 11 11 9 5 3 5 7 9 10 10 9 9 8 6 5 4 3 2 1 2 1 2 3 4 5 6 7 8 8 7 8 11 13 13 14 15 15 16 17 18 21
26 25 25 25 24 24 24 24 24 23 23 23 22 21 20 20 20 19 18 18 18 18 16 16 15 14 13 14 15 15 15 15 15 16 16 17 18 17 16 15 14 13 13 11 10 11 10 7 6 8 9 9 8 7 6 5 4 3 3 2 3 3 2 2 2 5 6 6 6 6 6 6 6 8 9 11 11 12 13 15 15 16 19 21 23
24 23 22 22 22 22 22 23 23 23 22 22 21 21 20 20 20 19 18 18 19 19 18 18 17 16 16 16 16 16 16 16 17 17 17 18 18 17 15 14 13 12 12 11 10 10 10 8 7 8 8 8 8 7 6 5 5 4 4 4 5 5 4 4 5 7 6 5 6 6 6 6 8 10 9 10 11 12 14 15 16 18 21 22 21
21 22 21 21 22 21 20 20 21 21 21 21 22 22 22 21 20 19 19 19 20 20 20 20 19 20 20 19 18 18 18 18 17 17 17 17 16 15 15 13 12 12 11 11 11 11 11 10 9 8 8 8 7 5 4 4 3 2 3 4 5 4 5 6 7 7 6 6 5 4 5 7 8 8 8 9 11 12 14 16 18 20 21 21 20
20 21 22 22 22 22 20 19 18 19 20 22 22 22 22 21 20 19 20 21 21 21 21 20 19 20 22 22 21 20 20 19 18 17 16 15 14 14 14 14 14 11 9 11 13 12 11 11 9 6 6 6 5 3 2 1 1 3 4 3 2 3 3 5 6 6 7 7 4 2 4 6 6 6 8 10 11 13 15 17 18 19 20 21 20
22 23 23 22 22 22 21 20 18 17 19 21 21 20 21 22 21 21 22 21 20 20 21 20 20 21 23 24 23 23 22 20 18 17 15 14 14 13 13 14 14 11 8 10 13 12 11 11 9 7 6 5 4 4 3 3 4 5 5 3 0 2 4 6 6 6 8 8 5 3 4 5 5 7 9 10 11 14 16 16 17 18 20 20 20
23 23 22 21 20 21 21 19 17 16 17 19 20 20 22 24 24 23 22 21 20 20 20 20 19 21 23 24 23 23 22 19 17 14 13 13 14 13 13 13 11 9 9 13 13 11 10 10 8 6 4 4 6 5 4 4 5 5 5 3 2 2 4 6 7 7 8 6 3 1 2 3 5 8 9 10 12 14 15 15 16 19 20 19 19
19 17 17 17 17 18 19 18 16 16 16 16 17 18 21 24 25 24 22 22 21 20 19 19 18 20 22 22 22 20 18 16 14 13 11 12 13 14 13 11 9 8 10 10 8 7 6 6 5 3 3 4 6 6 6 7 7 6 4 4 3 2 2 4 5 5 4 2 2 3 3 5 6 8 9 11 12 13 14 15 17 19 20 20 19
16 13 14 15 14 14 15 15 15 16 16 16 15 15 18 21 23 23 22 22 21 19 19 19 20 21 21 21 21 19 16 13 14 14 14 13 14 14 13 12 11 10 8 6 5 5 4 3 3 3 1 2 4 4 4 6 6 6 5 4 3 2 1 3 4 4 2 1 2 2 3 5 6 8 9 10 11 13 15 16 17 19 20 19 19
12 12 14 14 12 12 15 16 15 15 17 17 17 16 17 19 20 21 21 22 21 19 19 21 22 23 21 20 20 18 14 12 12 13 15 16 16 15 14 13 11 8 7 7 9 10 9 8 7 6 4 4 3 2 3 4 4 4 3 2 2 2 2 3 2 1 1 1 0 2 4 5 6 8 9 9 11 14 15 15 16 19 20 18 18
10 12 13 15 15 15 15 15 15 16 17 18 18 17 18 19 19 19 20 22 21 19 20 21 23 23 21 20 18 16 14 12 10 9 11 15 16 14 13 11 9 9 11 13 13 12 12 10 8 7 6 5 3 2 1 1 1 2 3 3 3 2 1 1 2 2 2 2 3 5 6 7 9 9 8 9 12 14 14 14 16 18 18 18 19
10 10 8 10 15 18 17 15 17 19 20 19 17 16 17 18 18 18 21 24 24 21 21 22 23 22 20 19 17 14 12 12 10 8 9 12 13 11 10 11 12 14 16 16 13 12 11 9 7 7 6 4 3 2 2 3 5 6 6 5 5 4 2 1 2 2 4 4 5 7 8 11 12 11 9 10 11 12 13 15 16 17 17 17 19
11 10 7 6 8 13 15 16 17 18 18 17 16 15 15 14 13 14 19 24 25 23 22 22 21 20 18 16 15 14 11 10 10 9 9 9 10 10 11 12 15 18 18 15 12 10 8 7 6 6 5 2 1 2 3 6 8 8 6 5 5 6 6 5 5 6 7 8 9 11 13 14 13 10 8 9 9 10 14 15 15 15 16 17 19
9 11 12 10 9 11 13 14 14 15 16 16 14 13 14 14 13 13 17 22 24 25 24 22 20 19 17 15 14 13 11 10 10 9 9 10 11 11 12 15 19 19 17 13 12 12 11 10 9 8 6 4 3 4 5 6 7 7 6 5 5 7 8 8 8 9 11 12 13 14 14 14 12 9 8 8 8 10 14 15 14 14 16 17 19
8 11 12 12 11 12 13 12 12 13 14 14 13 13 15 15 14 13 14 16 19 24 25 23 21 20 17 16 15 13 11 11 11 11 10 10 8 8 11 18 21 20 17 15 15 14 14 12 10 10 9 7 5 4 4 4 5 5 6 6 6 6 7 8 9 11 12 12 13 12 11 11 11 9 8 7 7 10 14 14 13 13 15 18 20
9 10 11 10 11 12 12 11 10 11 12 12 13 14 15 13 12 13 13 12 13 18 22 23 23 21 18 17 17 16 14 14 14 13 11 8 5 4 10 19 21 19 18 17 17 15 14 13 12 11 10 9 7 5 4 3 4 5 6 7 8 8 8 9 10 11 12 12 11 10 10 10 10 9 6 5 7 10 12 12 12 14 16 19 20
9 9 8 8 9 10 10 11 12 12 13 12 11 12 13 13 14 15 15 12 11 14 17 19 21 22 20 18 18 19 18 17 16 15 14 11 8 7 10 15 17 17 17 16 16 16 16 15 14 14 13 11 9 7 5 3 3 4 5 7 8 8 9 9 10 11 13 12 10 9 9 9 7 6 4 4 7 9 10 11 13 15 17 19 18
Wind_Direction
198 199 200 201 202 201 201 200 200 200 200 201 201 200 199 199 198 198 198 199 199 198 197 197 199 201 202 203 204 203 204 206 208 208 207 209 211 210 208 208 212 219 219 214 212 213 215 215 218 221 220 221 224 226 230 232 234 236 237 237 238 240 240 235 235 252 263 267 269 270 271 272 273 271 270 273 275 276 281 285 287 285 278 275 284
198 199 200 201 202 202 200 200 200 200 200 202 202 201 200 199 199 199 199 199 200 199 198 197 199 202 202 203 204 204 204 205 207 208 208 209 212 211 208 209 212 217 218 214 211 212 215 217 219 220 221 223 226 229 230 228 230 237 238 238 240 240 238 238 239 244 258 265 264 262 263 266 270 271 269 269 271 273 275 277 282 285 282 280 285
198 199 200 202 203 202 200 200 200 200 201 202 203 202 202 201 200 200 201 201 201 200 199 198 200 203 203 204 204 203 203 204 206 207 207 208 209 211 211 211 213 217 218 216 212 212 217 220 217 213 216 222 225 229 230 228 229 235 239 239 240 242 239 239 239 240 251 261 261 259 260 261 264 266 267 269 272 274 274 276 280 281 281 284 288
199 200 201 203 203 201 200 200 200 200 201 202 203 203 203 203 201 202 202 202 202 201 200 200 202 204 204 204 204 203 203 204 205 206 207 208 210 211 213 214 216 218 220 220 218 215 217 218 214 212 218 223 227 231 231 232 233 234 239 241 240 241 241 240 243 245 252 260 262 263 267 268 268 268 270 275 277 276 275 278 280 278 277 280 286
199 200 202 203 203 202 201 201 200 201 201 202 203 203 204 204 203 203 202 202 202 202 201 201 204 205 205 204 204 204 204 204 204 204 205 208 212 215 216 217 219 221 221 222 221 217 216 219 218 217 220 226 231 235 234 234 235 237 242 244 242 242 244 245 246 248 253 260 265 269 272 271 273 276 278 278 279 279 275 273 273 277 278 277 278
199 200 202 203 203 203 203 202 201 201 202 202 203 203 204 204 204 204 203 202 202 203 202 203 205 207 207 206 205 205 204 203 201 201 204 208 213 218 219 219 221 223 223 222 221 219 217 219 221 220 224 231 235 237 238 239 241 243 245 247 246 246 246 247 248 249 252 258 263 267 269 270 275 282 285 283 280 280 279 274 271 271 274 276 276
200 201 202 202 203 204 204 203 202 202 202 203 204 204 204 205 205 205 205 203 203 203 204 205 206 208 208 207 207 206 204 200 196 198 204 208 211 216 219 220 221 224 225 222 220 220 220 222 224 226 228 233 236 240 244 245 246 246 247 248 249 248 247 248 250 250 251 254 260 264 268 273 277 281 285 287 281 277 277 274 271 272 273 273 275
199 200 201 202 203 205 205 204 203 202 203 204 204 205 205 205 205 206 205 205 205 205 205 205 207 208 209 208 207 206 203 198 192 195 205 210 210 213 216 217 219 223 226 224 220 222 225 226 228 230 231 234 240 246 250 250 248 247 248 250 250 249 249 251 251 250 249 251 257 261 267 272 273 274 280 282 276 274 276 272 268 273 278 277 275
199 199 201 203 204 204 205 204 203 203 203 204 205 206 206 206 206 206 205 206 207 207 207 207 206 207 208 208 207 205 203 197 192 196 205 209 210 212 214 215 216 219 223 224 223 224 226 228 231 234 236 241 248 252 253 252 251 251 251 250 249 248 250 250 249 247 246 247 252 257 260 262 265 268 272 276 277 279 282 277 269 272 277 277 278
198 199 201 203 204 204 204 203 203 203 203 204 205 206 206 206 205 205 206 206 207 208 208 207 207 207 207 206 206 205 203 198 195 199 205 208 209 211 213 213 213 215 218 219 220 222 225 228 233 238 244 250 254 255 255 256 255 257 258 256 252 250 249 248 247 245 242 242 247 252 253 255 260 262 265 271 277 278 278 275 272 273 275 272 275
198 200 202 203 203 203 203 202 202 203 203 204 205 205 205 205 204 204 205 206 207 207 207 207 207 208 207 206 207 206 203 200 198 202 206 209 210 210 212 212 211 213 215 215 217 221 224 228 231 235 244 253 258 258 258 258 257 258 261 260 258 255 253 251 250 247 244 244 247 251 250 252 258 262 263 268 271 272 272 272 270 273 275 273 277
198 200 201 200 200 201 201 201 201 202 203 204 204 204 203 202 203 203 203 204 205 205 205 207 207 207 207 207 207 206 204 202 202 204 206 209 212 211 210 210 209 212 214 216 219 221 222 224 227 231 240 250 259 262 260 265 271 269 265 263 262 262 262 261 259 257 254 251 252 253 253 256 262 265 265 265 266 271 275 276 277 281 280 276 275
198 200 200 198 198 200 199 199 200 202 202 203 203 202 201 201 202 202 202 202 202 203 205 206 206 206 207 206 207 207 205 203 205 205 206 210 214 213 210 210 210 210 212 214 217 218 218 221 224 230 239 248 258 261 257 280 303 299 284 273 268 266 265 265 264 264 262 259 257 257 260 262 262 262 263 264 270 278 279 278 282 286 284 279 277
197 197 197 196 197 198 197 197 198 199 200 201 200 200 200 200 201 201 201 200 200 202 204 204 203 204 205 205 206 207 206 206 206 206 207 210 212 212 212 213 213 213 212 212 215 215 217 222 225 229 237 247 254 252 249 265 293 300 295 286 278 272 268 266 264 264 265 266 264 264 267 267 266 269 273 273 276 278 274 272 280 285 284 283 284
196 195 195 195 195 194 194 194 195 196 196 196 197 197 198 198 199 199 200 200 201 202 202 202 202 202 202 204 205 206 208 208 206 207 208 207 208 215 220 220 219 218 214 213 216 216 215 221 225 227 234 244 248 253 261 274 283 285 284 283 281 277 274 271 270 270 273 276 277 277 279 277 276 280 283 282 283 280 273 271 275 277 278 282 285
195 194 193 192 191 190 190 189 189 190 190 190 191 192 193 194 196 196 199 200 199 200 202 201 201 200 200 202 202 204 209 209 207 207 205 199 202 217 226 225 224 221 214 212 215 216 214 218 224 228 233 241 249 261 269 267 263 264 269 272 273 272 273 274 275 277 280 282 283 283 284 283 281 283 284 283 283 280 272 267 265 265 271 280 282
194 191 190 189 188 186 184 183 182 182 182 183 184 186 188 190 192 194 197 196 195 198 199 199 200 200 198 198 199 202 206 208 206 203 199 196 199 212 223 225 221 216 211 209 212 216 216 220 230 237 239 244 253 258 256 253 253 254 257 263 266 268 272 276 279 282 283 281 278 277 278 279 279 279 281 279 277 274 266 262 265 270 273 274 275
191 187 185 184 182 180 178 177 176 176 176 177 178 180 184 187 190 194 196 195 195 196 196 196 199 199 197 197 198 200 203 206 205 201 199 199 202 212 221 219 212 209 208 210 214 219 218 223 237 246 247 246 243 239 243 250 255 256 256 258 262 265 271 278 281 281 279 274 273 274 274 277 278 279 279 279 277 271 261 262 267 270 271 271 277
185 181 179 177 174 173 172 171 171 170 171 174 176 180 184 188 191 195 197 197 196 196 196 195 195 195 196 196 197 200 203 204 203 200 198 201 207 215 217 214 211 209 207 205 206 209 214 221 232 241 245 243 238 236 241 247 253 260 261 258 259 264 272 278 277 273 270 270 273 277 281 284 286 286 286 288 289 282 273 271 270 265 270 277 278
177 173 169 166 165 165 165 165 165 166 169 174 179 183 185 188 191 194 196 197 195 194 197 198 195 194 194 193 195 200 203 201 198 197 200 205 211 213 210 210 211 208 201 195 193 203 217 225 229 235 241 242 242 244 249 252 259 263 260 257 260 267 275 277 268 262 264 271 276 279 282 285 286 288 292 293 292 289 285 284 282 279 280 278 274
165 162 159 159 158 158 159 161 164 168 173 176 179 182 184 185 187 190 191 192 191 190 192 193 190 189 189 189 193 199 201 196 191 195 204 210 208 205 205 207 205 200 195 195 201 213 224 227 228 231 237 243 248 253 256 260 265 262 256 257 262 268 274 276 270 267 271 277 280 280 278 280 283 289 294 291 286 285 288 290 292 293 289 279 273
158 155 155 155 154 154 157 162 166 170 173 175 176 178 181 183 185 186 186 186 185 183 181 180 178 177 178 184 189 193 194 192 191 197 206 207 201 201 205 205 201 196 195 200 209 220 226 227 226 228 235 246 253 255 256 260 261 256 252 255 262 268 273 275 273 274 277 279 279 276 275 279 284 289 291 290 291 296 299 299 303 307 305 297 290
153 150 150 151 151 155 160 163 166 167 169 172 173 175 178 182 183 183 182 180 176 172 172 173 170 167 167 174 182 185 186 190 197 201 201 198 197 200 203 203 200 199 202 210 219 224 224 224 227 233 243 251 252 250 252 254 251 248 249 254 261 268 271 272 274 276 276 275 273 273 277 284 289 291 293 297 304 309 312 313 315 318 318 313 306
147 145 146 147 149 154 158 161 164 166 168 170 171 172 177 181 180 178 176 173 168 165 166 167 165 162 162 167 176 183 186 192 199 200 194 192 198 202 202 200 201 204 211 221 225 224 222 225 232 241 246 246 243 244 249 250 248 251 255 260 266 270 272 275 277 274 269 267 268 272 278 284 289 295 300 307 310 305 304 311 315 317 317 314 308
142 141 142 143 147 150 152 155 160 164 167 168 167 169 173 174 170 170 170 167 165 164 164 166 166 166 166 167 173 182 188 193 196 195 192 195 205 207 204 203 204 208 214 220 223 225 227 230 236 240 238 234 237 243 251 258 264 267 268 269 270 272 274 277 276 268 259 258 261 266 272 277 284 295 303 306 305 306 313 318 318 317 315 311 308
137 137 138 140 143 146 146 147 153 158 162 164 164 164 165 162 159 161 162 162 164 166 168 169 168 167 167 169 173 179 184 189 191 191 196 207 214 208 203 205 208 209 214 219 223 226 228 230 232 232 230 233 245 257 268 276 277 274 270 267 267 270 271 269 262 250 244 246 253 262 271 279 288 297 304 307 310 317 323 321 315 312 313 314 314
135 135 135 136 139 143 143 141 142 146 149 151 151 151 156 157 154 156 161 162 163 166 168 169 167 163 162 164 171 177 183 188 193 198 205 213 210 201 201 206 210 212 216 220 222 224 226 227 228 229 235 248 263 272 277 279 278 274 268 261 258 257 255 250 243 240 242 246 254 267 278 284 288 294 304 312 314 319 320 314 309 311 317 320 318
132 131 131 132 135 138 137 134 133 132 132 133 133 134 144 153 153 154 162 167 167 167 167 167 168 167 164 163 165 170 177 186 195 201 205 204 200 198 202 208 213 216 220 221 223 228 232 232 233 237 245 257 264 267 269 268 267 263 249 232 228 234 237 236 239 244 245 247 259 276 284 284 282 288 303 312 315 320 320 314 313 319 323 321 312
125 125 127 129 129 130 129 130 130 128 125 125 122 119 129 144 150 154 162 171 174 173 171 170 171 171 171 169 166 165 172 183 191 195 197 197 199 202 206 211 217 223 225 225 229 235 236 235 235 238 244 252 254 253 251 246 239 229 218 216 226 239 245 243 242 247 251 256 267 279 282 279 280 293 308 313 316 319 318 316 320 324 323 316 306
118 122 125 125 126 126 126 127 129 129 128 126 123 117 119 133 146 153 158 167 175 179 181 180 177 176 176 176 176 180 186 189 190 192 196 200 203 206 212 221 227 229 229 229 231 231 230 231 232 236 242 246 248 248 244 234 224 219 217 222 234 241 245 247 250 254 256 256 263 278 282 281 291 304 310 315 321 325 325 328 328 324 318 311 305
118 121 122 123 125 125 124 125 127 129 131 131 129 123 117 118 128 139 148 155 163 174 183 186 185 187 189 185 184 191 197 194 192 197 202 204 205 211 223 235 234 230 228 222 216 213 216 223 231 240 247 250 252 252 244 230 223 222 218 219 229 235 239 247 252 250 244 239 269 323 322 319 325 331 334 335 337 339 339 335 327 318 314 311 305
122 120 120 123 127 127 127 129 131 132 132 132 132 130 123 115 110 114 129 143 152 159 167 172 178 189 198 196 191 192 195 196 199 203 205 205 208 217 230 233 226 222 217 205 201 204 208 215 228 244 255 261 263 256 237 221 216 217 216 220 232 243 248 249 243 232 220 342 351 351 355 360 357 351 347 343 340 338 334 327 320 316 315 313 310
123 122 123 127 130 132 133 135 136 137 137 135 135 135 133 127 119 113 116 127 139 146 151 158 169 180 190 195 196 196 195 197 200 204 206 209 214 220 222 214 205 204 201 198 203 213 222 236 252 259 260 262 258 227 205 203 201 204 209 212 213 213 206 194 181 165 132 86 54 28 16 3 350 341 336 334 333 329 322 319 320 322 321 320 320
127 129 132 134 132 132 134 135 136 139 141 141 140 139 139 138 134 128 122 121 126 134 142 152 164 176 184 189 193 193 191 190 193 200 207 213 215 214 209 200 193 194 200 205 212 216 219 240 257 254 246 225 143 124 130 142 149 153 153 140 127 129 145 163 172 176 183 218 318 311 314 324 331 335 335 331 327 322 320 323 329 330 329 328 326
127 130 134 136 134 133 136 139 141 142 144 144 143 143 143 143 140 136 134 133 132 132 135 144 157 172 182 185 185 185 185 187 191 199 204 205 204 201 197 194 194 200 208 212 212 207 203 199 172 140 124 113 110 108 105 108 113 116 114 102 70 55 117 171 155 43 8 349 335 320 314 316 322 328 326 323 323 326 331 336 339 336 333 329 322
125 127 131 134 135 137 141 144 147 149 149 148 145 145 147 146 142 140 141 142 140 138 138 141 147 157 166 171 171 174 178 181 183 186 188 189 190 191 190 191 196 201 203 201 201 204 202 184 144 126 118 110 104 97 93 96 92 77 72 47 13 26 84 113 56 26 15 13 14 3 347 337 330 325 325 328 336 341 341 341 340 334 329 324 317
127 128 131 135 137 139 145 149 151 152 150 146 144 146 150 151 148 145 146 146 145 144 144 146 148 148 150 154 159 163 167 169 172 174 176 180 185 188 190 192 195 194 190 184 186 198 200 183 152 135 128 123 120 116 108 100 94 86 76 50 25 25 42 40 23 20 21 25 19 8 2 353 339 334 339 346 349 347 343 338 333 326 323 322 320
132 133 136 139 140 142 145 148 150 149 146 144 145 148 151 154 155 154 154 155 154 152 150 152 155 154 154 156 160 163 165 167 170 174 177 181 185 188 192 191 184 183 190 198 203 204 192 171 152 140 135 136 141 145 138 122 110 88 42 26 25 37 50 39 24 13 356 336 331 347 1 354 344 345 353 353 348 342 335 329 325 324 325 326 326
137 141 143 144 145 148 150 149 149 147 144 145 149 151 153 158 163 163 159 157 158 160 159 158 159 161 162 163 165 168 169 170 173 177 181 185 189 194 199 193 183 187 208 215 208 199 178 161 155 156 154 154 157 162 171 192 306 317 324 344 39 70 48 16 5 355 336 322 318 353 360 349 348 351 351 347 342 334 327 326 328 330 329 328 329
135 141 145 146 148 151 152 152 152 151 149 150 155 159 162 165 167 164 158 155 157 164 167 166 166 170 173 173 173 174 175 175 178 183 187 190 194 199 200 194 192 199 200 180 171 168 160 155 161 170 176 186 198 202 225 277 301 300 295 295 359 29 3 356 352 337 320 310 304 326 344 343 347 349 346 343 338 332 330 333 335 334 331 331 333
123 129 136 141 147 151 152 153 158 162 160 160 163 164 163 162 161 157 154 154 159 167 172 173 173 178 182 182 181 181 180 179 180 185 190 194 195 194 191 189 194 198 178 160 157 158 156 159 169 178 184 205 212 214 235 269 282 280 273 267 274 314 344 350 341 326 318 311 306 350 18 8 354 349 344 338 335 337 339 338 336 335 334 335 337
113 121 131 137 145 152 155 159 168 169 161 155 156 155 151 150 153 153 153 155 162 171 174 174 178 185 189 187 184 181 179 178 179 183 189 191 186 182 181 183 184 174 159 153 156 163 166 173 191 211 231 226 218 223 241 250 249 245 233 225 232 254 323 334 327 325 334 4 81 74 45 17 1 350 340 334 337 341 340 336 335 337 335 334 337
124 132 140 143 153 166 169 167 168 166 159 154 154 155 152 150 152 155 155 156 162 169 170 171 177 182 184 184 182 177 174 177 182 185 188 186 182 182 187 187 180 171 162 153 153 160 160 156 154 152 168 196 201 214 220 213 207 199 187 187 201 204 228 300 313 318 323 39 89 57 18 4 354 339 330 331 335 336 336 335 335 334 333 333 337
138 146 151 157 171 183 177 167 162 165 169 167 164 165 165 162 161 161 157 154 156 160 161 164 169 172 173 177 180 180 181 183 186 191 196 195 192 192 189 183 180 180 171 154 147 147 141 129 119 111 106 117 129 141 164 175 186 192 190 208 238 233 248 268 269 267 260 226 293 334 323 322 323 319 318 325 329 332 335 335 331 331 334 337 338
159 164 165 169 171 168 162 158 157 162 169 168 161 159 161 161 162 160 154 152 154 156 155 157 161 162 163 168 174 181 189 191 185 185 191 190 187 183 176 177 189 189 171 157 152 151 149 138 118 103 103 109 103 89 99 94 334 320 317 303 276 252 236 205 186 188 230 250 281 306 302 299 303 304 306 318 328 333 334 329 327 332 337 337 333
173 174 165 163 162 156 151 149 149 151 154 153 146 140 143 149 152 151 149 151 154 155 154 157 161 162 163 170 177 183 190 192 188 182 174 173 176 180 185 193 195 182 167 161 159 155 151 145 130 115 113 105 78 59 51 19 357 347 338 315 284 272 284 254 237 276 291 289 297 304 301 300 302 300 301 314 325 329 326 323 328 335 335 330 327
168 166 159 161 157 145 140 140 140 140 142 143 141 137 139 144 147 144 145 149 153 154 154 158 164 167 172 180 186 187 186 186 187 185 180 180 189 202 206 199 186 173 166 165 167 166 169 177 175 164 154 142 68 8 355 348 342 333 321 300 277 275 282 285 288 297 300 298 298 297 298 300 300 295 296 309 317 318 320 324 332 333 327 323 326
143 152 157 158 147 136 137 143 145 144 141 139 139 143 146 148 149 145 142 145 151 156 157 159 164 170 176 183 185 185 185 186 188 191 194 201 213 223 217 198 185 179 179 183 188 194 202 201 192 189 197 214 253 295 313 325 329 320 302 284 271 270 274 280 287 294 297 298 298 297 296 295 291 286 288 297 303 314 323 329 332 327 322 325 331
131 152 156 150 146 149 148 140 137 141 142 138 137 137 137 137 141 144 146 149 155 160 163 165 168 173 178 180 178 176 178 185 191 196 198 204 222 235 213 194 186 185 189 191 191 193 195 192 189 196 207 217 235 259 276 297 313 310 294 282 275 272 274 280 287 294 299 303 302 299 294 291 289 285 280 281 298 319 329 330 328 324 325 330 333
105 128 140 144 156 166 159 141 136 145 146 139 135 137 137 140 147 155 160 167 171 170 170 172 175 178 180 180 181 185 188 191 193 195 196 201 220 215 184 179 179 181 185 190 192 192 193 193 195 198 200 202 211 223 235 263 294 295 284 279 277 277 282 288 293 302 311 314 309 300 294 293 292 283 266 272 309 326 329 326 323 324 327 330 333
87 100 114 123 131 135 134 135 146 157 153 139 135 147 161 169 173 173 175 182 189 185 179 178 179 183 186 187 188 192 194 193 193 196 196 199 207 204 189 186 190 193 195 198 199 200 201 201 201 199 198 198 199 203 214 247 284 292 283 278 275 276 284 292 298 309 317 319 313 303 300 298 290 271 259 294 319 322 320 319 319 322 327 332 338
Height
745 748 750 753 755 757 759 762 765 768 770 773 775 777 780 782 784 787 788 790 791 793 795 796 798 799 801 803 804 805 807 809 811 813 815 816 817 819 820 821 823 824 825 826 826 827 828 828 829 830 831 831 832 833 834 834 835 835 836 837 837 838 838 838 838 837 836 837 837 837 837 837 837 837 837 836 836 835 835 834 833 832 832 832 832
741 744 746 749 751 753 756 759 762 765 767 770 772 775 777 779 781 784 785 787 788 789 791 793 795 796 797 799 800 802 803 806 809 811 813 814 816 817 818 819 820 822 823 824 824 825 826 826 827 828 829 829 830 831 831 832 833 833 834 834 834 835 835 835 835 834 834 834 834 834 835 835 835 835 835 834 834 834 833 833 832 831 830 830 829
737 740 743 745 747 750 753 756 758 761 764 766 769 771 774 776 778 780 781 783 785 786 788 789 791 792 793 795 796 798 801 803 805 807 809 811 813 815 817 817 818 820 821 822 822 823 823 824 824 825 827 828 828 829 829 830 830 831 831 831 832 832 833 833 833 832 831 831 831 832 832 832 832 832 833 832 832 832 831 831 830 829 828 827 827
734 737 739 742 745 748 750 752 755 758 760 762 765 767 770 772 774 776 778 780 781 783 785 786 788 789 789 791 793 795 798 800 802 805 808 811 813 815 816 816 817 818 819 819 820 821 821 821 822 823 825 826 826 826 827 827 828 828 829 829 829 830 830 831 830 830 829 828 829 829 829 829 829 830 830 830 829 829 829 828 827 826 826 826 825
730 733 736 739 742 744 746 749 751 753 755 758 761 764 766 768 770 772 774 776 778 779 781 782 783 784 785 787 790 792 794 797 800 804 808 811 812 814 815 815 816 816 817 818 818 819 819 819 820 821 822 823 824 824 824 825 826 826 826 827 827 827 828 828 828 828 827 826 826 826 827 827 826 827 827 827 826 826 825 825 825 824 824 823 823
726 729 732 735 738 740 742 744 746 749 751 754 757 760 762 764 766 768 770 772 774 775 776 778 779 780 782 784 786 789 792 795 799 804 808 809 810 812 812 813 814 815 815 816 816 817 817 818 819 820 821 821 822 822 823 823 824 824 824 824 824 825 825 825 826 826 825 825 824 824 824 824 824 823 824 824 823 823 822 822 822 821 821 820 820
721 724 728 730 733 735 737 739 741 744 747 750 752 755 757 760 761 763 766 768 769 770 772 774 775 777 779 781 784 787 790 793 798 803 806 806 806 807 808 810 811 813 813 814 814 815 816 816 817 818 819 820 820 821 821 822 822 822 822 822 822 823 823 823 823 823 823 823 822 822 821 821 821 820 821 821 821 820 820 819 818 818 818 817 817
715 719 722 725 727 729 731 734 737 740 743 746 748 751 753 755 757 759 762 763 765 766 768 770 772 774 777 779 781 784 787 791 795 798 799 800 800 801 802 805 807 809 811 812 813 815 815 816 816 816 817 818 819 820 820 820 820 820 820 821 821 820 820 821 821 821 821 821 820 820 819 818 818 818 818 818 818 818 818 817 815 815 814 814 814
710 714 717 719 721 723 727 731 733 737 739 742 744 746 748 751 753 755 758 759 761 763 765 767 770 772 774 776 779 782 785 788 790 791 792 793 795 795 797 800 802 805 808 811 812 814 814 815 815 815 816 816 817 818 818 819 819 818 819 819 819 819 818 818 818 819 819 819 818 817 817 816 816 816 816 815 815 815 815 814 813 812 812 811 811
704 708 711 713 716 719 723 726 729 732 735 737 739 741 744 747 749 752 754 756 758 760 763 765 767 768 771 773 776 778 781 784 785 786 786 788 790 792 794 796 799 802 805 808 810 811 812 813 813 814 815 815 816 816 816 816 817 816 817 817 818 817 817 817 816 816 817 816 815 815 815 814 813 813 813 812 813 812 812 811 810 809 809 809 808
698 702 704 707 712 716 718 721 724 727 729 731 734 737 740 743 746 748 750 753 755 757 760 761 763 765 768 770 773 775 778 781 782 782 784 786 788 789 791 794 796 799 802 804 806 808 809 810 811 812 813 813 814 814 814 815 815 815 815 816 816 816 816 815 815 815 815 814 813 813 812 811 810 811 810 810 810 810 809 809 808 807 807 806 806
691 695 698 703 708 710 713 716 719 722 724 727 730 733 737 740 743 745 747 749 752 754 756 757 759 763 765 767 770 773 776 779 779 780 783 785 786 787 789 792 794 796 799 801 803 806 807 808 809 809 809 810 812 812 812 813 814 814 814 814 815 815 814 814 813 813 813 812 812 811 810 809 808 808 808 807 807 807 807 807 806 806 805 805 804
685 689 693 698 701 704 708 711 714 717 720 724 727 730 734 737 739 741 743 746 749 750 752 754 757 760 762 764 767 770 773 776 777 779 781 782 784 786 789 791 792 794 797 799 801 803 805 806 806 806 808 808 809 809 809 811 813 813 813 813 813 813 813 812 812 811 811 810 809 808 807 806 806 805 806 806 805 805 804 804 805 804 804 803 802
679 682 687 691 695 699 703 706 710 713 717 721 725 727 731 733 735 738 740 743 745 747 749 751 753 756 758 760 764 767 770 772 774 776 778 780 784 789 793 793 793 794 795 797 799 800 802 803 803 804 805 806 806 806 807 808 810 811 811 811 811 811 810 810 809 809 808 807 806 805 804 804 803 802 803 803 803 802 801 801 802 802 801 800 799
673 677 681 685 689 694 698 702 706 710 714 718 721 724 727 730 733 736 737 739 742 744 746 749 750 753 755 758 762 765 767 769 771 774 777 782 790 795 796 795 795 795 794 795 797 798 799 801 801 801 802 803 804 804 805 807 808 808 807 807 808 808 807 806 806 806 805 804 803 802 801 801 800 800 800 800 799 799 798 799 799 799 798 798 797
669 672 676 680 684 689 693 698 703 707 711 714 718 721 724 727 731 733 735 738 740 742 744 746 748 751 754 757 760 763 765 766 769 773 778 785 792 794 793 793 793 793 793 794 796 797 797 799 799 800 800 801 802 803 803 804 804 804 804 804 805 805 804 803 804 803 802 801 800 799 799 798 798 798 798 797 797 796 796 796 797 796 796 795 794
664 668 672 676 680 685 689 695 699 703 708 711 714 718 721 725 728 731 733 735 737 739 741 743 746 749 752 755 758 760 762 764 768 772 776 778 781 784 787 789 789 790 791 792 794 796 797 797 798 799 799 799 800 801 802 801 800 800 801 801 802 802 801 801 801 800 800 799 798 798 797 797 796 796 796 795 794 795 795 794 794 794 794 793 791
660 663 668 672 677 681 686 691 696 700 704 708 712 716 719 723 726 728 730 731 733 735 737 740 743 745 748 752 754 756 759 761 764 767 769 770 772 777 783 785 785 787 788 790 792 793 794 796 797 798 798 798 798 798 797 797 797 797 798 799 799 798 798 798 798 797 797 797 796 796 795 795 795 794 794 793 792 792 792 791 791 792 792 791 790
656 659 664 668 673 678 683 688 693 698 702 707 710 714 717 720 722 725 727 728 730 732 734 736 739 742 745 748 750 753 755 757 760 763 765 767 771 775 779 781 782 783 784 786 789 790 791 793 794 795 796 796 795 794 793 793 793 794 795 796 796 796 796 797 796 795 795 795 794 794 794 793 793 792 792 791 790 790 789 789 789 790 791 790 788
653 658 663 667 672 677 681 686 691 696 701 705 708 712 714 717 720 723 725 727 729 732 734 736 738 740 743 746 748 750 752 755 758 761 764 767 770 772 775 777 778 780 782 784 787 788 789 790 790 792 793 792 792 791 791 790 790 791 793 793 793 793 794 794 794 794 794 793 793 793 792 792 791 790 790 789 788 788 788 787 787 788 788 787 786
653 657 662 666 671 675 679 685 690 694 699 702 706 709 712 715 718 721 724 727 729 731 734 736 738 740 742 744 746 748 750 753 757 760 763 765 768 770 773 774 776 778 781 783 784 785 786 786 787 789 789 789 790 789 789 788 788 789 790 791 791 791 791 792 792 792 792 791 791 791 790 790 789 789 788 787 787 786 786 786 786 785 785 784 784
652 656 661 666 670 674 679 684 689 693 697 701 704 708 711 714 716 719 722 725 727 729 732 734 736 738 740 742 744 746 749 753 756 759 761 763 765 768 771 773 775 777 779 780 781 782 782 783 784 786 786 787 787 787 787 786 786 787 788 789 789 789 790 790 790 790 790 789 789 789 788 788 787 787 786 786 785 785 784 784 784 784 783 783 782
651 655 660 666 670 674 680 684 688 692 696 699 703 706 709 713 715 717 720 722 725 728 730 732 734 736 739 741 743 746 749 752 754 757 759 761 764 767 769 772 774 776 777 778 778 779 780 781 782 783 784 784 785 785 785 784 784 785 786 787 787 788 788 789 789 788 788 788 787 787 787 786 786 785 785 784 783 783 783 782 782 782 782 781 781
651 655 660 665 670 675 680 684 688 692 695 698 702 705 708 712 714 715 718 720 723 726 728 731 733 735 737 740 742 745 748 751 753 755 757 760 763 765 768 770 772 774 775 776 777 777 778 780 781 781 782 782 783 783 782 782 783 784 785 785 786 786 786 787 787 786 786 786 786 786 785 785 784 784 783 783 782 782 782 781 781 780 780 779 778
650 655 660 665 670 675 680 684 689 692 696 698 701 705 708 711 712 714 717 719 722 725 727 730 732 733 736 738 741 744 747 749 752 755 757 760 762 764 767 769 771 773 774 775 776 777 777 778 779 779 780 780 781 781 781 781 782 782 783 783 783 784 784 785 785 785 785 785 785 785 784 783 783 783 782 782 781 781 780 779 779 778 778 777 776
651 655 660 664 669 675 680 685 690 693 697 700 702 705 708 710 713 715 717 719 722 724 727 729 730 732 734 737 740 743 745 748 751 754 756 759 761 763 766 768 770 771 772 773 774 775 776 776 777 777 778 779 779 779 779 780 780 781 781 781 781 782 783 783 784 784 784 784 784 783 783 782 782 782 781 780 780 779 779 778 777 776 776 775 773
650 656 660 664 670 676 682 686 690 694 698 701 703 706 709 711 713 716 718 720 722 724 726 728 729 731 733 735 738 741 744 747 750 752 755 757 759 762 765 766 768 769 770 772 773 773 774 775 776 777 777 777 777 777 777 778 778 779 779 779 780 781 781 782 783 783 782 782 782 781 781 781 780 780 780 779 779 778 778 777 776 775 774 773 771
651 657 662 667 673 678 683 686 689 693 697 700 703 706 708 710 712 714 717 719 721 723 725 727 728 729 731 734 737 739 742 745 747 750 752 754 757 760 762 764 766 767 769 770 772 773 774 774 775 775 775 775 775 775 776 777 777 777 778 778 779 780 781 781 781 781 781 781 780 780 780 779 779 779 779 778 777 777 776 775 774 773 772 771 769
654 660 665 670 676 680 683 687 690 693 696 700 703 707 709 711 713 714 716 719 720 722 724 725 727 729 731 733 736 738 741 743 745 748 750 753 756 758 760 762 764 766 767 769 771 772 773 773 773 773 773 773 773 774 775 775 776 776 777 778 778 779 779 780 780 779 779 779 779 779 778 778 778 778 777 777 776 775 775 774 773 771 770 769 768
659 665 669 674 678 681 684 688 691 693 697 700 703 707 710 713 714 716 718 719 721 722 723 725 727 729 731 733 735 737 740 742 745 748 750 752 755 757 759 761 763 764 767 768 770 771 771 771 771 771 771 771 772 772 773 773 774 775 776 776 777 777 777 778 778 778 778 778 778 778 777 777 777 777 776 776 775 774 773 772 771 770 769 767 766
664 669 673 677 680 683 686 689 691 695 698 701 703 707 710 713 716 717 719 720 721 723 723 724 726 728 730 732 735 737 740 742 745 747 749 751 754 756 758 760 761 763 765 767 768 769 769 769 769 769 770 770 770 769 770 770 772 774 774 774 775 775 775 776 776 776 777 777 777 777 777 776 776 775 775 774 773 772 771 771 770 769 767 766 764
667 671 675 679 682 684 687 689 692 695 698 701 704 706 710 713 716 718 719 720 722 723 724 724 726 728 730 732 734 737 739 741 744 746 748 750 753 755 757 759 760 762 764 765 766 767 767 767 768 768 768 768 768 767 767 768 770 772 772 772 773 773 774 775 775 775 776 776 776 776 775 775 775 774 773 773 771 770 770 769 768 767 766 764 763
669 673 677 680 682 685 687 689 692 694 697 700 704 707 710 713 716 718 720 721 722 723 724 725 726 728 730 733 735 736 738 740 743 745 747 750 752 754 756 759 760 761 763 764 765 765 765 766 767 767 767 767 767 766 766 767 769 770 771 772 772 772 773 774 774 774 774 774 774 774 774 773 773 772 772 771 770 769 768 767 767 765 764 763 762
671 674 677 680 683 685 688 690 692 695 698 701 704 707 710 713 715 717 720 722 724 725 725 726 727 729 731 733 735 736 738 740 742 745 747 749 752 754 756 758 760 761 762 763 763 764 764 765 766 766 766 766 766 766 766 767 768 770 771 771 772 772 772 773 773 773 773 773 773 773 772 772 772 771 771 770 769 768 767 766 765 764 763 762 761
674 676 678 680 683 686 689 692 694 697 699 702 704 707 710 712 715 717 719 722 724 726 726 726 728 730 732 733 735 736 738 740 742 745 747 749 752 754 756 757 759 760 760 761 762 762 764 765 766 766 765 765 766 766 766 767 769 769 770 771 771 771 772 772 772 772 772 772 772 771 771 771 770 770 769 768 768 767 766 765 765 764 762 761 759
676 679 681 683 685 687 690 693 695 698 700 701 703 706 709 712 715 718 720 723 725 725 726 727 729 731 733 734 735 737 739 741 743 745 747 749 752 753 755 756 757 758 759 760 760 761 763 764 765 765 765 765 766 766 767 768 768 769 770 770 770 770 770 771 771 771 771 771 771 770 770 770 769 769 768 767 767 766 765 765 764 763 762 760 758
679 681 684 686 688 690 692 694 696 698 699 700 702 706 709 712 715 718 721 724 724 725 726 727 729 731 733 734 736 738 739 742 744 746 748 750 751 753 754 755 756 757 757 758 759 760 762 763 763 764 764 765 766 766 767 767 768 768 769 769 769 770 770 770 770 770 770 770 770 770 769 769 769 768 768 767 766 766 765 764 763 762 761 759 757
681 683 686 688 690 693 695 697 697 697 698 699 701 704 708 712 716 719 722 723 723 724 726 727 729 731 732 734 737 738 740 742 744 746 748 749 750 752 753 754 754 755 756 757 759 760 761 762 762 763 764 764 765 766 766 766 767 768 768 769 769 769 769 769 769 769 769 769 769 769 769 768 768 768 767 766 766 765 765 764 762 761 760 758 756
683 685 688 689 691 694 697 698 697 696 697 698 700 703 706 711 716 719 721 722 723 724 725 727 729 731 732 734 736 738 740 742 743 745 746 748 749 750 751 752 753 755 755 757 758 759 760 761 761 762 763 764 764 765 765 766 766 767 767 768 768 768 768 768 768 768 768 768 768 768 768 768 767 767 766 766 766 765 764 763 762 760 758 757 755
684 686 688 690 692 694 696 697 697 697 698 699 700 702 706 711 715 718 719 720 722 723 725 727 729 730 732 734 735 737 739 741 742 744 745 746 748 749 750 751 753 754 755 756 756 757 759 760 760 761 762 762 763 763 764 765 765 766 766 766 767 767 767 767 767 767 767 767 767 767 767 767 766 766 766 766 765 764 763 762 761 759 758 756 754
685 687 689 692 694 695 696 698 699 699 700 700 701 703 707 710 713 716 717 719 721 723 724 726 728 730 732 734 735 737 739 740 741 743 744 745 747 748 749 751 752 753 754 755 755 757 758 759 759 760 761 761 762 762 763 763 764 765 765 765 765 766 766 766 766 766 766 766 766 766 766 766 766 766 766 765 764 763 762 761 760 758 757 755 753
685 688 691 693 696 697 698 699 701 701 702 702 703 705 707 709 711 714 716 719 721 722 724 726 728 730 732 734 736 737 739 740 741 742 743 745 746 747 749 750 752 752 753 754 755 756 757 757 758 759 759 760 761 761 762 763 763 764 764 764 764 764 765 765 766 766 765 765 765 765 765 765 765 765 765 764 763 762 761 760 759 757 756 754 752
687 689 692 696 698 699 700 701 702 702 703 703 704 706 708 709 711 713 715 718 720 722 724 726 728 730 733 735 736 738 739 740 741 742 743 744 746 747 748 750 751 751 752 753 754 755 756 757 758 758 759 760 760 761 761 762 762 762 763 763 763 763 763 764 765 765 764 764 765 765 765 765 765 764 764 763 762 762 760 759 758 756 755 753 751
689 691 694 698 700 701 701 701 702 702 703 703 704 706 708 709 710 712 714 717 720 722 724 726 728 730 733 735 736 737 738 739 740 741 742 743 744 746 747 749 750 750 751 752 753 754 755 756 757 758 759 759 760 760 761 762 762 762 762 762 762 762 762 762 763 763 763 764 764 764 764 764 764 764 763 763 762 761 759 758 757 755 754 752 750
693 694 696 697 699 700 700 701 701 702 702 703 705 706 707 708 710 712 714 716 719 721 723 725 728 730 732 734 736 737 737 738 739 740 741 742 743 745 746 747 748 749 750 751 752 753 754 755 756 757 758 759 759 760 761 761 761 762 762 762 762 762 762 762 762 762 763 763 763 763 764 764 763 763 763 762 761 760 759 757 756 755 753 751 750
695 696 696 697 696 696 697 699 700 701 702 703 704 705 707 708 710 711 713 715 718 721 723 725 727 730 731 733 735 735 736 737 738 739 740 741 742 744 745 746 747 748 748 749 751 752 753 755 755 756 758 758 759 759 760 760 760 760 761 761 762 762 761 762 762 762 762 763 763 763 763 763 763 762 762 761 760 759 758 757 755 754 752 751 749
694 694 696 699 698 696 696 698 700 700 701 702 704 705 707 708 710 711 713 715 717 720 722 725 727 729 731 732 733 734 734 735 736 738 739 740 741 742 744 745 746 747 747 748 750 751 752 753 754 754 756 757 758 758 758 758 758 759 760 761 761 761 761 761 762 762 762 762 762 762 762 762 761 761 760 759 759 758 757 756 754 753 752 750 748
694 694 696 699 700 699 699 700 701 701 701 702 704 705 707 708 710 711 713 715 717 719 722 724 727 728 730 731 732 732 734 735 736 737 739 740 741 741 742 743 744 745 746 747 748 749 750 751 752 752 753 754 755 756 756 756 757 758 759 760 760 761 761 761 761 761 761 761 761 761 761 760 760 759 758 758 758 757 756 755 754 752 751 749 748
695 695 696 697 699 699 699 700 700 701 702 703 705 706 707 708 710 711 713 715 717 719 721 723 725 727 729 730 731 732 733 734 735 737 738 739 740 740 740 741 742 743 744 746 747 748 748 749 750 750 751 752 753 753 754 755 756 757 758 759 759 760 760 760 761 761 761 760 760 760 759 758 758 758 757 757 757 756 755 754 753 752 750 749 747
696 696 697 698 699 699 699 700 701 702 703 704 705 706 707 709 710 712 713 715 717 719 720 722 724 726 727 728 729 731 732 733 734 736 737 738 738 739 739 740 741 742 743 744 745 745 746 747 747 748 749 750 751 752 752 753 754 755 756 757 758 759 759 760 760 760 760 759 758 758 758 757 757 756 756 756 756 755 754 753 752 751 750 748 746
697 697 698 699 699 699 700 701 701 702 703 704 706 707 708 709 710 712 713 715 717 718 720 721 722 724 725 726 728 729 730 731 733 734 735 736 737 737 738 739 740 740 741 742 742 743 744 744 745 746 747 748 749 750 751 752 752 754 755 756 757 757 758 758 758 758 758 758 757 757 756 756 755 755 755 755 755 754 753 753 751 750 749 748 746